,,,PA_Meas_PMT16A,,PR_Meas_QMR101_102,,RH_Meas_QMH101,,SR_Meas_QMS101,,TA_Meas_QMH101,,GenWind,,GenWind,
date,time,status,PA,status,PR,status,RH,status,SR,status,TA,status,DirAvg,status,SpdAvg,
2012-09-05, 00:00:04,VALID,1010.71,VALID,0,VALID,104,VALID,0,VALID,24.454,VALID,179,VALID,0,
2012-09-05, 00:01:04,VALID,1010.68,VALID,0,VALID,104,VALID,0,VALID,24.4522,VALID,179,VALID,0,
2012-09-05, 00:02:04,VALID,1010.67,VALID,0,VALID,104,VALID,0,VALID,24.4735,VALID,179,VALID,0,
2012-09-05, 00:03:04,VALID,1010.65,VALID,0,VALID,104,VALID,0,VALID,24.4522,VALID,239,VALID,0.396094,
2012-09-05, 00:04:04,VALID,1010.67,VALID,0,VALID,104,VALID,0,VALID,24.4735,VALID,326,VALID,0,
2012-09-05, 00:05:04,VALID,1010.67,VALID,0,VALID,104,VALID,0,VALID,24.493,VALID,326,VALID,0,
2012-09-05, 00:06:04,VALID,1010.67,VALID,0,VALID,104,VALID,0,VALID,24.4911,VALID,326,VALID,0,
2012-09-05, 00:07:04,VALID,1010.65,VALID,0,VALID,104,VALID,0,VALID,24.4911,VALID,326,VALID,0,
2012-09-05, 00:08:04,VALID,1010.7,VALID,0,VALID,104,VALID,0,VALID,24.5125,VALID,326,VALID,0,
2012-09-05, 00:09:04,VALID,1010.71,VALID,0,VALID,104,VALID,0,VALID,24.5125,VALID,326,VALID,0,
2012-09-05, 00:10:04,VALID,1010.73,VALID,0,VALID,104,VALID,0,VALID,24.5106,VALID,326,VALID,0,
2012-09-05, 00:11:04,VALID,1010.72,VALID,0,VALID,104,VALID,0,VALID,24.5125,VALID,326,VALID,0,
2012-09-05, 00:12:04,VALID,1010.7,VALID,0,VALID,104,VALID,0,VALID,24.5125,VALID,326,VALID,0,
2012-09-05, 00:13:04,VALID,1010.71,VALID,0,VALID,104,VALID,0.112112,VALID,24.4911,VALID,326,VALID,0,
2012-09-05, 00:14:04,VALID,1010.7,VALID,0,VALID,104,VALID,0,VALID,24.493,VALID,327,VALID,0,
2012-09-05, 00:15:04,VALID,1010.67,VALID,0,VALID,104,VALID,0,VALID,24.5125,VALID,336,VALID,0,
2012-09-05, 00:16:04,VALID,1010.67,VALID,0,VALID,104,VALID,0,VALID,24.5125,VALID,336,VALID,0,
2012-09-05, 00:17:04,VALID,1010.64,VALID,0,VALID,104,VALID,0.112112,VALID,24.4717,VALID,336,VALID,0,
2012-09-05, 00:18:04,VALID,1010.65,VALID,0,VALID,104,VALID,0.112112,VALID,24.4911,VALID,336,VALID,0,
2012-09-05, 00:19:04,VALID,1010.64,VALID,0,VALID,104,VALID,0.112112,VALID,24.4911,VALID,336,VALID,0,
2012-09-05, 00:20:04,VALID,1010.64,VALID,0,VALID,104,VALID,0.112112,VALID,24.4717,VALID,336,VALID,0,
2012-09-05, 00:21:04,VALID,1010.63,VALID,0,VALID,104,VALID,0,VALID,24.4522,VALID,336,VALID,0,
2012-09-05, 00:22:04,VALID,1010.61,VALID,0,VALID,104,VALID,0.112112,VALID,24.4735,VALID,336,VALID,0,
2012-09-05, 00:23:04,VALID,1010.63,VALID,0,VALID,104,VALID,0,VALID,24.4522,VALID,336,VALID,0.133594,
2012-09-05, 00:24:04,VALID,1010.64,VALID,0,VALID,104,VALID,0.112112,VALID,24.4735,VALID,336,VALID,0.00429688,
2012-09-05, 00:25:04,VALID,1010.61,VALID,0,VALID,104,VALID,0,VALID,24.4522,VALID,336,VALID,0,
2012-09-05, 00:26:04,VALID,1010.63,VALID,0,VALID,104,VALID,0.112112,VALID,24.4327,VALID,336,VALID,0,
2012-09-05, 00:27:04,VALID,1010.65,VALID,0,VALID,104,VALID,0.112112,VALID,24.4735,VALID,336,VALID,0,
2012-09-05, 00:28:04,VALID,1010.65,VALID,0,VALID,104,VALID,0.112112,VALID,24.4522,VALID,336,VALID,0,
2012-09-05, 00:29:04,VALID,1010.67,VALID,0,VALID,104,VALID,0,VALID,24.4522,VALID,336,VALID,0,
2012-09-05, 00:30:04,VALID,1010.68,VALID,0,VALID,104,VALID,0,VALID,24.4522,VALID,336,VALID,0,
2012-09-05, 00:31:04,VALID,1010.67,VALID,0,VALID,104,VALID,0.112112,VALID,24.4735,VALID,336,VALID,0,
2012-09-05, 00:32:04,VALID,1010.68,VALID,0,VALID,104,VALID,0,VALID,24.4717,VALID,336,VALID,0,
2012-09-05, 00:33:04,VALID,1010.68,VALID,0,VALID,104,VALID,0.112112,VALID,24.4522,VALID,336,VALID,0,
2012-09-05, 00:34:04,VALID,1010.67,VALID,0,VALID,104,VALID,0,VALID,24.4735,VALID,336,VALID,0,
2012-09-05, 00:35:04,VALID,1010.67,VALID,0,VALID,104,VALID,0,VALID,24.4717,VALID,336,VALID,0,
2012-09-05, 00:36:04,VALID,1010.65,VALID,0,VALID,104,VALID,0.112112,VALID,24.493,VALID,336,VALID,0.0359375,
2012-09-05, 00:37:04,VALID,1010.64,VALID,0,VALID,104,VALID,0,VALID,24.4735,VALID,336,VALID,0,
2012-09-05, 00:38:04,VALID,1010.6,VALID,0,VALID,104,VALID,0,VALID,24.4717,VALID,336,VALID,0,
2012-09-05, 00:39:04,VALID,1010.6,VALID,0,VALID,104,VALID,0,VALID,24.5125,VALID,336,VALID,0,
2012-09-05, 00:40:04,VALID,1010.59,VALID,0,VALID,104,VALID,0,VALID,24.5125,VALID,336,VALID,0,
2012-09-05, 00:41:04,VALID,1010.62,VALID,0,VALID,104,VALID,0.112112,VALID,24.5106,VALID,336,VALID,0,
2012-09-05, 00:42:04,VALID,1010.61,VALID,0,VALID,104,VALID,0,VALID,24.5106,VALID,336,VALID,0,
2012-09-05, 00:43:04,VALID,1010.6,VALID,0,VALID,104,VALID,0,VALID,24.532,VALID,336,VALID,0,
2012-09-05, 00:44:04,VALID,1010.64,VALID,0,VALID,104,VALID,0,VALID,24.571,VALID,336,VALID,0,
2012-09-05, 00:45:04,VALID,1010.62,VALID,0,VALID,104,VALID,0.112112,VALID,24.5515,VALID,336,VALID,0,
2012-09-05, 00:46:04,VALID,1010.62,VALID,0,VALID,104,VALID,0.112112,VALID,24.5496,VALID,336,VALID,0,
2012-09-05, 00:47:04,VALID,1010.59,VALID,0,VALID,104,VALID,0,VALID,24.5496,VALID,336,VALID,0,
2012-09-05, 00:48:04,VALID,1010.6,VALID,0,VALID,104,VALID,0,VALID,24.571,VALID,336,VALID,0,
2012-09-05, 00:49:04,VALID,1010.58,VALID,0,VALID,104,VALID,0,VALID,24.5515,VALID,336,VALID,0,
2012-09-05, 00:50:04,VALID,1010.52,VALID,0,VALID,104,VALID,0,VALID,24.5496,VALID,336,VALID,0,
2012-09-05, 00:51:04,VALID,1010.5,VALID,0,VALID,104,VALID,0.112112,VALID,24.5496,VALID,336,VALID,0,
2012-09-05, 00:52:04,VALID,1010.47,VALID,0,VALID,104,VALID,0,VALID,24.5515,VALID,336,VALID,0,
2012-09-05, 00:53:04,VALID,1010.45,VALID,0,VALID,104,VALID,0.112112,VALID,24.571,VALID,336,VALID,0,
2012-09-05, 00:54:04,VALID,1010.42,VALID,0,VALID,104,VALID,0.112112,VALID,24.5496,VALID,309,VALID,0.747656,
2012-09-05, 00:55:04,VALID,1010.42,VALID,0,VALID,104,VALID,0,VALID,24.5691,VALID,310,VALID,0.148438,
2012-09-05, 00:56:04,VALID,1010.39,VALID,0,VALID,104,VALID,0,VALID,24.5691,VALID,310,VALID,0,
2012-09-05, 00:57:04,VALID,1010.39,VALID,0,VALID,104,VALID,0.112112,VALID,24.5691,VALID,310,VALID,0,
2012-09-05, 00:58:04,VALID,1010.44,VALID,0,VALID,104,VALID,0.112112,VALID,24.6099,VALID,309,VALID,0.021875,
2012-09-05, 00:59:04,VALID,1010.42,VALID,0,VALID,104,VALID,0,VALID,24.6099,VALID,309,VALID,0,
2012-09-05, 01:00:04,VALID,1010.41,VALID,0,VALID,104,VALID,0.112112,VALID,24.6294,VALID,309,VALID,0,
2012-09-05, 01:01:04,VALID,1010.38,VALID,0,VALID,104,VALID,0.112112,VALID,24.6081,VALID,309,VALID,0,
2012-09-05, 01:02:04,VALID,1010.39,VALID,0,VALID,104,VALID,0.112112,VALID,24.5886,VALID,309,VALID,0,
2012-09-05, 01:03:04,VALID,1010.4,VALID,0,VALID,104,VALID,0,VALID,24.6081,VALID,309,VALID,0,
2012-09-05, 01:04:04,VALID,1010.38,VALID,0,VALID,104,VALID,0.112112,VALID,24.6081,VALID,309,VALID,0,
2012-09-05, 01:05:04,VALID,1010.4,VALID,0,VALID,104,VALID,0.112112,VALID,24.6294,VALID,309,VALID,0,
2012-09-05, 01:06:04,VALID,1010.41,VALID,0,VALID,104,VALID,0,VALID,24.6294,VALID,309,VALID,0,
2012-09-05, 01:07:04,VALID,1010.42,VALID,0,VALID,104,VALID,0,VALID,24.6276,VALID,309,VALID,0,
2012-09-05, 01:08:04,VALID,1010.42,VALID,0,VALID,104,VALID,0,VALID,24.6276,VALID,309,VALID,0,
2012-09-05, 01:09:04,VALID,1010.46,VALID,0,VALID,104,VALID,0.112112,VALID,24.6081,VALID,309,VALID,0,
2012-09-05, 01:10:04,VALID,1010.45,VALID,0,VALID,104,VALID,0.112112,VALID,24.6276,VALID,309,VALID,0,
2012-09-05, 01:11:04,VALID,1010.45,VALID,0,VALID,104,VALID,0,VALID,24.6489,VALID,309,VALID,0,
2012-09-05, 01:12:04,VALID,1010.43,VALID,0,VALID,104,VALID,0.112112,VALID,24.6276,VALID,309,VALID,0,
2012-09-05, 01:13:04,VALID,1010.44,VALID,0,VALID,104,VALID,0.112112,VALID,24.6276,VALID,309,VALID,0,
2012-09-05, 01:14:04,VALID,1010.42,VALID,0,VALID,104,VALID,0.112112,VALID,24.6081,VALID,309,VALID,0,
2012-09-05, 01:15:04,VALID,1010.41,VALID,0,VALID,104,VALID,0.112112,VALID,24.6294,VALID,309,VALID,0,
2012-09-05, 01:16:04,VALID,1010.42,VALID,0,VALID,104,VALID,0,VALID,24.6276,VALID,309,VALID,0,
2012-09-05, 01:17:04,VALID,1010.43,VALID,0,VALID,104,VALID,0,VALID,24.6471,VALID,309,VALID,0,
2012-09-05, 01:18:04,VALID,1010.43,VALID,0,VALID,104,VALID,0.112112,VALID,24.6471,VALID,309,VALID,0,
2012-09-05, 01:19:04,VALID,1010.44,VALID,0,VALID,104,VALID,0.112112,VALID,24.6471,VALID,309,VALID,0,
2012-09-05, 01:20:04,VALID,1010.47,VALID,0,VALID,104,VALID,0,VALID,24.6666,VALID,309,VALID,0,
2012-09-05, 01:21:04,VALID,1010.47,VALID,0,VALID,104,VALID,0.112112,VALID,24.7055,VALID,309,VALID,0,
2012-09-05, 01:22:04,VALID,1010.45,VALID,0,VALID,104,VALID,0.112112,VALID,24.7055,VALID,309,VALID,0,
2012-09-05, 01:23:04,VALID,1010.48,VALID,0,VALID,104,VALID,0,VALID,24.7055,VALID,309,VALID,0,
2012-09-05, 01:24:04,VALID,1010.45,VALID,0,VALID,104,VALID,0,VALID,24.686,VALID,309,VALID,0,
2012-09-05, 01:25:04,VALID,1010.45,VALID,0,VALID,104,VALID,0,VALID,24.686,VALID,309,VALID,0,
2012-09-05, 01:26:04,VALID,1010.46,VALID,0,VALID,104,VALID,0,VALID,24.686,VALID,309,VALID,0,
2012-09-05, 01:27:04,VALID,1010.48,VALID,0,VALID,104,VALID,0,VALID,24.6879,VALID,309,VALID,0,
2012-09-05, 01:28:04,VALID,1010.48,VALID,0,VALID,104,VALID,0,VALID,24.6684,VALID,309,VALID,0,
2012-09-05, 01:29:04,VALID,1010.47,VALID,0,VALID,104,VALID,0,VALID,24.6879,VALID,309,VALID,0,
2012-09-05, 01:30:04,VALID,1010.48,VALID,0,VALID,104,VALID,0,VALID,24.6879,VALID,309,VALID,0,
2012-09-05, 01:31:04,VALID,1010.5,VALID,0,VALID,104,VALID,0,VALID,24.7074,VALID,309,VALID,0,
2012-09-05, 01:32:04,VALID,1010.47,VALID,0,VALID,104,VALID,0,VALID,24.7074,VALID,309,VALID,0,
2012-09-05, 01:33:04,VALID,1010.45,VALID,0,VALID,104,VALID,0,VALID,24.6879,VALID,309,VALID,0,
2012-09-05, 01:34:04,VALID,1010.42,VALID,0,VALID,104,VALID,0,VALID,24.686,VALID,309,VALID,0,
2012-09-05, 01:35:04,VALID,1010.41,VALID,0,VALID,104,VALID,0,VALID,24.6879,VALID,309,VALID,0,
2012-09-05, 01:36:04,VALID,1010.41,VALID,0,VALID,104,VALID,0,VALID,24.6879,VALID,309,VALID,0,
2012-09-05, 01:37:04,VALID,1010.42,VALID,0,VALID,104,VALID,0.112112,VALID,24.7055,VALID,309,VALID,0,
2012-09-05, 01:38:04,VALID,1010.41,VALID,0,VALID,104,VALID,0,VALID,24.686,VALID,309,VALID,0,
2012-09-05, 01:39:04,VALID,1010.43,VALID,0,VALID,104,VALID,0,VALID,24.7269,VALID,309,VALID,0,
2012-09-05, 01:40:04,VALID,1010.41,VALID,0,VALID,104,VALID,0,VALID,24.7055,VALID,309,VALID,0,
2012-09-05, 01:41:04,VALID,1010.44,VALID,0,VALID,104,VALID,0,VALID,24.725,VALID,309,VALID,0,
2012-09-05, 01:42:04,VALID,1010.44,VALID,0,VALID,104,VALID,0,VALID,24.7445,VALID,309,VALID,0,
2012-09-05, 01:43:04,VALID,1010.47,VALID,0,VALID,104,VALID,0,VALID,24.764,VALID,309,VALID,0,
2012-09-05, 01:44:04,VALID,1010.45,VALID,0,VALID,104,VALID,0.112112,VALID,24.7854,VALID,309,VALID,0,
2012-09-05, 01:45:04,VALID,1010.48,VALID,0,VALID,104,VALID,0,VALID,24.7854,VALID,309,VALID,0,
2012-09-05, 01:46:04,VALID,1010.45,VALID,0,VALID,104,VALID,0,VALID,24.764,VALID,309,VALID,0,
2012-09-05, 01:47:04,VALID,1010.49,VALID,0,VALID,104,VALID,0,VALID,24.7835,VALID,309,VALID,0,
2012-09-05, 01:48:04,VALID,1010.44,VALID,0,VALID,104,VALID,0,VALID,24.8049,VALID,309,VALID,0,
2012-09-05, 01:49:04,VALID,1010.44,VALID,0,VALID,104,VALID,0,VALID,24.8049,VALID,309,VALID,0,
2012-09-05, 01:50:04,VALID,1010.43,VALID,0,VALID,104,VALID,0,VALID,24.7835,VALID,309,VALID,0,
2012-09-05, 01:51:04,VALID,1010.4,VALID,0,VALID,104,VALID,0,VALID,24.8049,VALID,309,VALID,0,
2012-09-05, 01:52:04,VALID,1010.39,VALID,0,VALID,104,VALID,0,VALID,24.7835,VALID,309,VALID,0,
2012-09-05, 01:53:04,VALID,1010.39,VALID,0,VALID,104,VALID,0,VALID,24.8244,VALID,309,VALID,0,
2012-09-05, 01:54:04,VALID,1010.39,VALID,0,VALID,104,VALID,0,VALID,24.8244,VALID,309,VALID,0,
2012-09-05, 01:55:04,VALID,1010.4,VALID,0,VALID,104,VALID,0,VALID,24.8225,VALID,309,VALID,0,
2012-09-05, 01:56:04,VALID,1010.4,VALID,0,VALID,104,VALID,0,VALID,24.842,VALID,309,VALID,0,
2012-09-05, 01:57:04,VALID,1010.39,VALID,0,VALID,104,VALID,0,VALID,24.8438,VALID,309,VALID,0,
2012-09-05, 01:58:04,VALID,1010.37,VALID,0,VALID,104,VALID,0,VALID,24.8438,VALID,309,VALID,0,
2012-09-05, 01:59:04,VALID,1010.36,VALID,0,VALID,104,VALID,0,VALID,24.8633,VALID,309,VALID,0,
2012-09-05, 02:00:04,VALID,1010.34,VALID,0,VALID,104,VALID,0,VALID,24.842,VALID,309,VALID,0,
2012-09-05, 02:01:04,VALID,1010.34,VALID,0,VALID,104,VALID,0,VALID,24.842,VALID,309,VALID,0,
2012-09-05, 02:02:04,VALID,1010.29,VALID,0,VALID,104,VALID,0,VALID,24.842,VALID,309,VALID,0,
2012-09-05, 02:03:04,VALID,1010.29,VALID,0,VALID,104,VALID,0,VALID,24.8633,VALID,309,VALID,0,
2012-09-05, 02:04:04,VALID,1010.3,VALID,0,VALID,104,VALID,0,VALID,24.8438,VALID,309,VALID,0,
2012-09-05, 02:05:04,VALID,1010.23,VALID,0,VALID,104,VALID,0,VALID,24.8438,VALID,309,VALID,0,
2012-09-05, 02:06:04,VALID,1010.22,VALID,0,VALID,104,VALID,0,VALID,24.842,VALID,309,VALID,0,
2012-09-05, 02:07:04,VALID,1010.19,VALID,0,VALID,104,VALID,0,VALID,24.8633,VALID,309,VALID,0,
2012-09-05, 02:08:04,VALID,1010.18,VALID,0,VALID,104,VALID,0,VALID,24.8615,VALID,309,VALID,0,
2012-09-05, 02:09:04,VALID,1010.15,VALID,0,VALID,104,VALID,0,VALID,24.8633,VALID,309,VALID,0,
2012-09-05, 02:10:04,VALID,1010.14,VALID,0,VALID,104,VALID,0,VALID,24.8809,VALID,309,VALID,0,
2012-09-05, 02:11:04,VALID,1010.14,VALID,0,VALID,104,VALID,0,VALID,24.9004,VALID,309,VALID,0,
2012-09-05, 02:12:04,VALID,1010.15,VALID,0,VALID,104,VALID,0,VALID,24.9218,VALID,309,VALID,0,
2012-09-05, 02:13:04,VALID,1010.14,VALID,0,VALID,104,VALID,0,VALID,24.9218,VALID,309,VALID,0,
2012-09-05, 02:14:04,VALID,1010.16,VALID,0,VALID,104,VALID,0,VALID,24.9004,VALID,309,VALID,0,
2012-09-05, 02:15:04,VALID,1010.15,VALID,0,VALID,104,VALID,0,VALID,24.9413,VALID,309,VALID,0,
2012-09-05, 02:16:04,VALID,1010.13,VALID,0,VALID,104,VALID,0,VALID,24.9218,VALID,309,VALID,0,
2012-09-05, 02:17:04,VALID,1010.12,VALID,0,VALID,104,VALID,0,VALID,24.9004,VALID,309,VALID,0,
2012-09-05, 02:18:04,VALID,1010.1,VALID,0,VALID,104,VALID,0,VALID,24.9413,VALID,309,VALID,0,
2012-09-05, 02:19:04,VALID,1010.07,VALID,0,VALID,104,VALID,0,VALID,24.9413,VALID,309,VALID,0,
2012-09-05, 02:20:04,VALID,1010.08,VALID,0,VALID,104,VALID,0,VALID,24.9413,VALID,309,VALID,0,
2012-09-05, 02:21:04,VALID,1010.06,VALID,0,VALID,104,VALID,0,VALID,24.9413,VALID,309,VALID,0,
2012-09-05, 02:22:04,VALID,1010.07,VALID,0,VALID,104,VALID,0,VALID,24.9199,VALID,309,VALID,0,
2012-09-05, 02:23:04,VALID,1010.06,VALID,0,VALID,104,VALID,0,VALID,24.9413,VALID,309,VALID,0,
2012-09-05, 02:24:04,VALID,1010.04,VALID,0,VALID,104,VALID,0,VALID,24.9004,VALID,309,VALID,0,
2012-09-05, 02:25:05,VALID,1010.07,VALID,0,VALID,104,VALID,0,VALID,24.9023,VALID,309,VALID,0,
2012-09-05, 02:26:05,VALID,1010.02,VALID,0,VALID,104,VALID,0,VALID,24.9023,VALID,309,VALID,0,
2012-09-05, 02:27:05,VALID,1010,VALID,0,VALID,104,VALID,0,VALID,24.8633,VALID,309,VALID,0,
2012-09-05, 02:28:05,VALID,1009.98,VALID,0,VALID,104,VALID,0,VALID,24.8828,VALID,309,VALID,0,
2012-09-05, 02:29:05,VALID,1009.99,VALID,0,VALID,104,VALID,0,VALID,24.8633,VALID,309,VALID,0,
2012-09-05, 02:30:05,VALID,1009.96,VALID,0,VALID,104,VALID,0,VALID,24.8438,VALID,309,VALID,0,
2012-09-05, 02:31:05,VALID,1009.92,VALID,0,VALID,104,VALID,0,VALID,24.8244,VALID,309,VALID,0,
2012-09-05, 02:32:05,VALID,1009.94,VALID,0,VALID,104,VALID,0,VALID,24.8438,VALID,309,VALID,0,
2012-09-05, 02:33:05,VALID,1009.93,VALID,0,VALID,104,VALID,0,VALID,24.8225,VALID,309,VALID,0,
2012-09-05, 02:34:05,VALID,1009.94,VALID,0,VALID,104,VALID,0,VALID,24.8633,VALID,309,VALID,0,
2012-09-05, 02:35:05,VALID,1009.93,VALID,0,VALID,104,VALID,0,VALID,24.8633,VALID,309,VALID,0,
2012-09-05, 02:36:05,VALID,1009.9,VALID,0,VALID,104,VALID,0,VALID,24.8225,VALID,309,VALID,0,
2012-09-05, 02:37:05,VALID,1009.92,VALID,0,VALID,104,VALID,0,VALID,24.842,VALID,309,VALID,0,
2012-09-05, 02:38:05,VALID,1009.94,VALID,0,VALID,104,VALID,0,VALID,24.8225,VALID,309,VALID,0,
2012-09-05, 02:39:05,VALID,1009.89,VALID,0,VALID,104,VALID,0,VALID,24.8633,VALID,309,VALID,0,
2012-09-05, 02:40:05,VALID,1009.89,VALID,0,VALID,104,VALID,0,VALID,24.8633,VALID,309,VALID,0,
2012-09-05, 02:41:05,VALID,1009.87,VALID,0,VALID,104,VALID,0,VALID,24.8633,VALID,309,VALID,0,
2012-09-05, 02:42:05,VALID,1009.89,VALID,0,VALID,104,VALID,0,VALID,24.8633,VALID,309,VALID,0,
2012-09-05, 02:43:05,VALID,1009.89,VALID,0,VALID,104,VALID,0,VALID,24.8633,VALID,309,VALID,0,
2012-09-05, 02:44:05,VALID,1009.85,VALID,0,VALID,104,VALID,0,VALID,24.8633,VALID,309,VALID,0,
2012-09-05, 02:45:05,VALID,1009.85,VALID,0,VALID,104,VALID,0,VALID,24.8438,VALID,309,VALID,0,
2012-09-05, 02:46:05,VALID,1009.86,VALID,0,VALID,104,VALID,0,VALID,24.8438,VALID,309,VALID,0,
2012-09-05, 02:47:05,VALID,1009.86,VALID,0,VALID,104,VALID,0,VALID,24.8438,VALID,309,VALID,0,
2012-09-05, 02:48:05,VALID,1009.91,VALID,0,VALID,104,VALID,0,VALID,24.8244,VALID,309,VALID,0,
2012-09-05, 02:49:05,VALID,1009.93,VALID,0,VALID,104,VALID,0,VALID,24.7835,VALID,309,VALID,0,
2012-09-05, 02:50:05,VALID,1009.93,VALID,0,VALID,104,VALID,0,VALID,24.8049,VALID,309,VALID,0,
2012-09-05, 02:51:05,VALID,1009.92,VALID,0,VALID,104,VALID,0,VALID,24.8049,VALID,309,VALID,0,
2012-09-05, 02:52:05,VALID,1009.95,VALID,0,VALID,104,VALID,0,VALID,24.7854,VALID,309,VALID,0,
2012-09-05, 02:53:05,VALID,1009.95,VALID,0,VALID,104,VALID,0,VALID,24.7854,VALID,309,VALID,0,
2012-09-05, 02:54:05,VALID,1009.94,VALID,0,VALID,104,VALID,0,VALID,24.7854,VALID,309,VALID,0,
2012-09-05, 02:55:05,VALID,1009.94,VALID,0,VALID,104,VALID,0,VALID,24.7659,VALID,309,VALID,0,
2012-09-05, 02:56:05,VALID,1009.95,VALID,0,VALID,104,VALID,0,VALID,24.7659,VALID,309,VALID,0,
2012-09-05, 02:57:05,VALID,1009.95,VALID,0,VALID,104,VALID,0,VALID,24.7659,VALID,309,VALID,0,
2012-09-05, 02:58:05,VALID,1009.92,VALID,0,VALID,104,VALID,0,VALID,24.7464,VALID,309,VALID,0,
2012-09-05, 02:59:05,VALID,1009.94,VALID,0,VALID,104,VALID,0,VALID,24.7854,VALID,258,VALID,0,
2012-09-05, 03:00:05,VALID,1009.98,VALID,0,VALID,104,VALID,0,VALID,24.7854,VALID,258,VALID,0,
2012-09-05, 03:01:05,VALID,1009.97,VALID,0,VALID,104,VALID,0.112112,VALID,24.7445,VALID,258,VALID,0,
2012-09-05, 03:02:05,VALID,1009.97,VALID,0,VALID,104,VALID,0,VALID,24.7659,VALID,258,VALID,0,
2012-09-05, 03:03:05,VALID,1009.96,VALID,0,VALID,104,VALID,0.112112,VALID,24.8049,VALID,251,VALID,0.136328,
2012-09-05, 03:04:05,VALID,1009.95,VALID,0,VALID,104,VALID,0,VALID,24.9004,VALID,152,VALID,1.01445,
2012-09-05, 03:05:05,VALID,1009.91,VALID,0,VALID,104,VALID,0,VALID,24.9979,VALID,126,VALID,0.732813,
2012-09-05, 03:06:05,VALID,1009.89,VALID,0,VALID,104,VALID,0,VALID,25.0583,VALID,121,VALID,0.553906,
2012-09-05, 03:07:05,VALID,1009.84,VALID,0,VALID,104,VALID,0,VALID,25.0778,VALID,168,VALID,0.837109,
2012-09-05, 03:08:05,VALID,1009.85,VALID,0,VALID,104,VALID,0,VALID,25.1148,VALID,140,VALID,0.798437,
2012-09-05, 03:09:05,VALID,1009.83,VALID,0,VALID,104,VALID,0,VALID,25.1752,VALID,164,VALID,0.873438,
2012-09-05, 03:10:05,VALID,1009.82,VALID,0,VALID,104,VALID,0,VALID,25.2142,VALID,146,VALID,1.08594,
2012-09-05, 03:11:05,VALID,1009.82,VALID,0,VALID,104,VALID,0,VALID,25.2337,VALID,159,VALID,1.59922,
2012-09-05, 03:12:05,VALID,1009.8,VALID,0,VALID,104,VALID,0,VALID,25.2513,VALID,165,VALID,0.922656,
2012-09-05, 03:13:05,VALID,1009.81,VALID,0,VALID,104,VALID,0,VALID,25.2922,VALID,160,VALID,1.01211,
2012-09-05, 03:14:05,VALID,1009.77,VALID,0,VALID,104,VALID,0,VALID,25.3117,VALID,159,VALID,0.452734,
2012-09-05, 03:15:05,VALID,1009.73,VALID,0,VALID,104,VALID,0,VALID,25.3312,VALID,156,VALID,0.907031,
2012-09-05, 03:16:05,VALID,1009.72,VALID,0,VALID,104,VALID,0,VALID,25.3507,VALID,166,VALID,1.21094,
2012-09-05, 03:17:05,VALID,1009.73,VALID,0,VALID,104,VALID,0,VALID,25.3702,VALID,186,VALID,0.387109,
2012-09-05, 03:18:05,VALID,1009.74,VALID,0,VALID,103.672,VALID,0,VALID,25.3683,VALID,175,VALID,1.52031,
2012-09-05, 03:19:05,VALID,1009.74,VALID,0,VALID,103.001,VALID,0,VALID,25.4092,VALID,157,VALID,1.21289,
2012-09-05, 03:20:05,VALID,1009.76,VALID,0,VALID,101.766,VALID,0,VALID,25.4482,VALID,163,VALID,0.986719,
2012-09-05, 03:21:05,VALID,1009.75,VALID,0,VALID,100.98,VALID,0,VALID,25.4482,VALID,147,VALID,0.446875,
2012-09-05, 03:22:05,VALID,1009.77,VALID,0,VALID,101.4,VALID,0,VALID,25.4287,VALID,156,VALID,0.687891,
2012-09-05, 03:23:05,VALID,1009.74,VALID,0,VALID,102.193,VALID,0,VALID,25.4092,VALID,161,VALID,0.678516,
2012-09-05, 03:24:05,VALID,1009.75,VALID,0,VALID,102.643,VALID,0,VALID,25.4287,VALID,149,VALID,1.28828,
2012-09-05, 03:25:05,VALID,1009.76,VALID,0,VALID,102.719,VALID,0,VALID,25.4072,VALID,163,VALID,1.06055,
2012-09-05, 03:26:05,VALID,1009.76,VALID,0,VALID,102.749,VALID,0,VALID,25.4482,VALID,187,VALID,0.723437,
2012-09-05, 03:27:05,VALID,1009.78,VALID,0,VALID,102.62,VALID,0.112112,VALID,25.4482,VALID,149,VALID,0.776563,
2012-09-05, 03:28:05,VALID,1009.8,VALID,0,VALID,102.658,VALID,0,VALID,25.4267,VALID,176,VALID,1.31016,
2012-09-05, 03:29:05,VALID,1009.79,VALID,0,VALID,102.635,VALID,0,VALID,25.4482,VALID,179,VALID,0.80625,
2012-09-05, 03:30:05,VALID,1009.8,VALID,0,VALID,102.589,VALID,0,VALID,25.4482,VALID,181,VALID,1.22969,
2012-09-05, 03:31:05,VALID,1009.8,VALID,0,VALID,102.452,VALID,0,VALID,25.4462,VALID,151,VALID,1.675,
2012-09-05, 03:32:05,VALID,1009.8,VALID,0,VALID,102.399,VALID,0.112112,VALID,25.4482,VALID,163,VALID,0.773828,
2012-09-05, 03:33:05,VALID,1009.79,VALID,0,VALID,102.505,VALID,0,VALID,25.4267,VALID,134,VALID,1.07461,
2012-09-05, 03:34:05,VALID,1009.74,VALID,0,VALID,102.574,VALID,0,VALID,25.4482,VALID,150,VALID,0.809766,
2012-09-05, 03:35:05,VALID,1009.74,VALID,0,VALID,102.673,VALID,0.112112,VALID,25.4287,VALID,138,VALID,1.05742,
2012-09-05, 03:36:05,VALID,1009.75,VALID,0,VALID,102.78,VALID,0,VALID,25.4072,VALID,144,VALID,0.689062,
2012-09-05, 03:37:05,VALID,1009.77,VALID,0,VALID,102.91,VALID,0.112112,VALID,25.4072,VALID,142,VALID,0.560156,
2012-09-05, 03:38:05,VALID,1009.76,VALID,0,VALID,103.062,VALID,0,VALID,25.4092,VALID,142,VALID,0.636719,
2012-09-05, 03:39:05,VALID,1009.74,VALID,0,VALID,103.253,VALID,0,VALID,25.3897,VALID,140,VALID,1.53516,
2012-09-05, 03:40:05,VALID,1009.77,VALID,0,VALID,103.375,VALID,0,VALID,25.3897,VALID,123,VALID,0.628906,
2012-09-05, 03:41:05,VALID,1009.77,VALID,0,VALID,103.436,VALID,0.112112,VALID,25.3897,VALID,125,VALID,0.772656,
2012-09-05, 03:42:05,VALID,1009.77,VALID,0,VALID,103.436,VALID,0,VALID,25.3488,VALID,170,VALID,0.750781,
2012-09-05, 03:43:05,VALID,1009.76,VALID,0,VALID,103.283,VALID,0,VALID,25.3507,VALID,173,VALID,2.10781,
2012-09-05, 03:44:05,VALID,1009.77,VALID,0,VALID,103.123,VALID,0.112112,VALID,25.3897,VALID,96,VALID,0.623828,
2012-09-05, 03:45:05,VALID,1009.79,VALID,0,VALID,103.039,VALID,0,VALID,25.3702,VALID,124,VALID,0.608594,
2012-09-05, 03:46:05,VALID,1009.8,VALID,0,VALID,103.093,VALID,0,VALID,25.3702,VALID,144,VALID,0.878906,
2012-09-05, 03:47:05,VALID,1009.79,VALID,0,VALID,103.123,VALID,0,VALID,25.3507,VALID,151,VALID,0.877734,
2012-09-05, 03:48:05,VALID,1009.8,VALID,0,VALID,103.138,VALID,0,VALID,25.3312,VALID,150,VALID,0.613281,
2012-09-05, 03:49:05,VALID,1009.78,VALID,0,VALID,103.138,VALID,0,VALID,25.3293,VALID,148,VALID,0.484375,
2012-09-05, 03:50:05,VALID,1009.74,VALID,0,VALID,103.23,VALID,0,VALID,25.3312,VALID,132,VALID,0.725781,
2012-09-05, 03:51:05,VALID,1009.74,VALID,0,VALID,103.314,VALID,0,VALID,25.2903,VALID,132,VALID,0.313672,
2012-09-05, 03:52:05,VALID,1009.69,VALID,0,VALID,103.42,VALID,0,VALID,25.2922,VALID,117,VALID,0.894141,
2012-09-05, 03:53:05,VALID,1009.69,VALID,0,VALID,103.504,VALID,0,VALID,25.3117,VALID,117,VALID,0.563672,
2012-09-05, 03:54:05,VALID,1009.73,VALID,0,VALID,103.558,VALID,0,VALID,25.3117,VALID,115,VALID,0.647656,
2012-09-05, 03:55:05,VALID,1009.7,VALID,0,VALID,103.603,VALID,0,VALID,25.2922,VALID,115,VALID,0.369531,
2012-09-05, 03:56:05,VALID,1009.71,VALID,0,VALID,103.748,VALID,0,VALID,25.2922,VALID,115,VALID,0.338281,
2012-09-05, 03:57:05,VALID,1009.71,VALID,0,VALID,103.741,VALID,0,VALID,25.2922,VALID,114,VALID,0.49375,
2012-09-05, 03:58:05,VALID,1009.71,VALID,0,VALID,103.779,VALID,0,VALID,25.2727,VALID,121,VALID,0.641406,
2012-09-05, 03:59:05,VALID,1009.72,VALID,0,VALID,103.794,VALID,0,VALID,25.2727,VALID,121,VALID,0.503516,
2012-09-05, 04:00:05,VALID,1009.73,VALID,0,VALID,103.84,VALID,0,VALID,25.2727,VALID,121,VALID,0.396484,